Whiteman AFB, MO

6:57 PM CST on November 11, 2019 (GMT -0600)
Whiteman Air Force Base

Weather History for KSZL - May, 2019

Change the Weather History Date:

Friday, May 3, 2019

  Actual Average Record
Temperature  
Mean Temperature 54 °F -  
Max Temperature 58 °F 70 °F 84 °F (2001)
Min Temperature 48 °F 51 °F 32 °F (2013)
Degree Days  
Heating Degree Days 12    
Growing Degree Days 4 (Base 50)    
Moisture  
Dew Point 55 °F    
Average Humidity 99    
Maximum Humidity 100    
Minimum Humidity 93    
Precipitation  
Precipitation 0.01 in - - ()
Sea Level Pressure  
Sea Level Pressure 29.99 in    
Wind  
Wind Speed 5 mph (NE)    
Max Wind Speed 12 mph    
Max Gust Speed -    
Visibility 10 miles    
Events Rain    
Averages and records for this station are not official NWS values.
T = Trace of Precipitation, MM = Missing Value Source: NWS Daily Summary

Daily Weather History Graph

Daily Weather History Graph

Search for Another Location

Airport or City:

Astronomy

May. 03, 2019 Rise Set
Actual Time 6:14 AM CDT 8:08 PM CDT
Civil Twilight 5:45 AM CDT 8:37 PM CDT
Nautical Twilight 5:10 AM CDT 9:12 PM CDT
Astronomical Twilight 4:33 AM CDT 9:50 PM CDT
Moon 5:54 AM CDT (5/3) 6:57 PM CDT (5/3)
Length of Visible Light 14h 51m
Length of Day
13h 53m
Waning Crescent, 2% of the Moon is Illuminated
May 3
Waning Crescent
May 4
New
May 11
First Quarter
May 18
Full
May 26
Last Quarter

Hourly Weather History & Observations

Time (CDT) Temp. Dew Point Humidity Pressure Visibility Wind Dir Wind Speed Gust Speed Precip Events Conditions
12:56 AM 54.9 °F 54.9 °F 100% 30.05 in 10.0 mi North 3.5 mph - N/A   Overcast
1:56 AM 54.5 °F 54.5 °F 100% 30.04 in 10.0 mi NE 5.8 mph - N/A   Overcast
2:56 AM 55.2 °F 55.2 °F 100% 30.02 in 10.0 mi Calm Calm - N/A   Overcast
3:56 AM 54.5 °F 54.5 °F 100% 30.01 in 10.0 mi NE 4.6 mph - N/A   Overcast
4:56 AM 53.4 °F 53.4 °F 100% 30.00 in 10.0 mi East 4.6 mph - N/A   Overcast
5:56 AM 53.4 °F 53.4 °F 100% 29.99 in 10.0 mi ENE 4.6 mph - N/A   Overcast
6:56 AM 54.5 °F 54.5 °F 100% 30.00 in 10.0 mi Calm Calm - N/A   Overcast
7:56 AM 55.6 °F 55.6 °F 100% 30.02 in 10.0 mi ESE 4.6 mph - N/A   Overcast
8:56 AM 56.3 °F 56.3 °F 100% 30.02 in 10.0 mi East 5.8 mph - N/A   Overcast
9:56 AM 56.7 °F 56.7 °F 100% 30.01 in 10.0 mi NE 6.9 mph - N/A   Overcast
10:42 AM 55.4 °F 55.4 °F 100% 30.02 in 10.0 mi NE 5.8 mph - N/A   Light Drizzle
10:55 AM 55.6 °F 55.6 °F 100% 30.02 in 10.0 mi NNE 9.2 mph - 0.00 in Rain Light Rain
11:23 AM 55.4 °F 55.4 °F 100% 30.03 in 3.0 mi NNE 8.1 mph - N/A   Light Drizzle
11:55 AM 54.9 °F 54.9 °F 100% 30.03 in 3.0 mi NE 9.2 mph - 0.00 in   Light Drizzle
12:57 PM 56.8 °F 56.8 °F 100% 30.01 in 10.0 mi NE 10.4 mph - 0.01 in   Overcast
1:59 PM 57.7 °F 56.8 °F 97% 30.00 in 10.0 mi East 6.9 mph - N/A   Overcast
2:56 PM 57.7 °F 56.7 °F 96% 29.98 in 10.0 mi NE 9.2 mph - N/A   Overcast
3:56 PM 57.6 °F 55.6 °F 93% 29.96 in 10.0 mi NE 10.4 mph - N/A   Overcast
4:56 PM 56.8 °F 56.3 °F 98% 29.95 in 10.0 mi NE 11.5 mph - N/A   Overcast
5:56 PM 56.1 °F 56.1 °F 100% 29.98 in 10.0 mi ENE 6.9 mph - N/A   Overcast
6:56 PM 55.4 °F 55.4 °F 100% 29.96 in 10.0 mi East 6.9 mph - N/A   Overcast
7:13 PM 55.4 °F 55.4 °F 100% 29.96 in 10.0 mi East 6.9 mph - N/A   Overcast
7:56 PM 55.2 °F 55.2 °F 100% 29.95 in 10.0 mi ENE 5.8 mph - N/A   Mostly Cloudy
8:56 PM 54.0 °F 54.0 °F 100% 29.95 in 10.0 mi NE 6.9 mph - N/A   Mostly Cloudy
9:56 PM 53.4 °F 53.4 °F 100% 29.97 in 10.0 mi ENE 4.6 mph - N/A   Mostly Cloudy
10:56 PM 50.7 °F 50.7 °F 100% 29.95 in 10.0 mi NE 4.6 mph - N/A   Mostly Cloudy
11:56 PM 48.2 °F 48.2 °F 100% 29.97 in 10.0 mi Calm Calm - N/A   Mostly Cloudy